Showing default

SKYSAT C2, 41773

Orbit data source: Space-Track

SKYSAT C2, 41773 is a payload satellite owned by Terra Bella (US) in SSO that was launched on Fri, 16 Sep 2016 UTC via a VEGA launch vehicle from the French Guiana (FRGUI). Payload-class satellites include a variety of spacecraft equipped with specific instruments for various scientific and technological missions. These include communications satellites like Starlink; space stations such as the ISS; scientific satellites like the Hubble; Earth observation satellites from companies like Planet Labs, Umbra, and HawkEye 360; GPS; miniature CubeSats for education and research; and military/defense satellites.

Loading next visibility...
Identifier
41773, 2016-058D
Orbit
SSO
Country
Flag of USUS
Related business
Manufacturer
SS/Loral (MDA)
Mission
Operational Commercial Imaging
Bus & Motor
SKYSAT-GEN2, Unknown motor
Mass
110 kg wet, 110 kg dry
Launch date (UTC)
2016-09-16 (9 years ago)
Launch vehicle
VEGA
Launch site
French Guiana (FRGUI)
Object type
Payload
Rocket body
Debris
Shape & HBR
Box, 1.0 m
Radar Cross Section
0.888 m², Medium (>0.1 m² and < 1m²)

Expand to show TLE details & history
Last TLE update: 23 hours ago

TLE from 23 hours ago
0 SKYSAT C2
1 41773U 16058D   25305.52489276  .00012295  00000-0  35310-3 0  9994
2 41773  97.0422 331.8260 0004888 133.0850 227.0804 15.35960634510033
Epoch: 2025-11-01T12:35Z
TLE epoch observation values (Epoch: 2025-11-01T12:35:50.734Z)
Latitude
-0.00008°
Longitude
101.81089°
Altitude
463.468 km
Speed
7.633 km/s
True Right ascension
22h 07m 18s
True Declination
0° 00' 00"
Sunlit
Object was in full shadow at epoch
Visualization orbit readout
Latitude
Unknown
Longitude
Unknown
Altitude
Unknown
Speed
Unknown
Apparent Right ascension
Unknown
Apparent Declination
Unknown
Sunlit
N/A
Visualization observer readout
Local Sidereal Time
07:44:11
Azimuth
Unknown
Elevation
Unknown
Doppler factor
Unknown
Orbital elements
Apogee altitude
458.338 km
Perigee altitude
451.658 km
Semi-major axis
6,833.135 km
Eccentricity
0.00049
Inclination
97.0422°
RAAN
331.826°
Arg. of periapsis
133.085°
True anomaly
227.0394°
Mean anomaly
227.0804°
Eccentric anomaly
227.0599°
Mean motion
3.84249 °/min
Orbital period
93.69 mins
BSTAR
0.0003531
Loading maneuver chart data...
Computing Atmospheric mass density...
Loading historical data...
Loading historical data...
Loading historical data...
Loading historical data...
Loading historical data...
Loading historical data...
Loading historical data...

Documentation

Showing up to 5 results
|